SCP
0 0 0 0 0 0 0 0 0 0 0 0 0 0 0 0 0 0 0 0 0 0 0 0 0 0 0 0 0 0 0 0 0 0 0 0 0 0 0 0 0 0 0
0 0 0 0 0 0 0 0 0 0 0 0 0 0 0 0 0 0 0 0 0 0 0 0 0 0 0 0 0 0 0 0 0 0 0 0 0 0 0 0 0 0 0
0 0 0 0 0 0 0 0 0 0 0 0 0 0 0 0 0 0 0 0 0 0 0 0 0 0 0 0 0 0 0 0 0 0 0 0 0 0 0 0 0 0 0
0 0 0 0 0 0 0 0 0 0 0 0 0 0 0 0 0 0 0 0 0 0 0 0 0 0 0 0 0 0 0 0 0 0 0 0 0 0 0 0 0 0 0
0 0 0 0 0 0 0 0 0 0 0 0 0 0 0 0 0 0 0 0 0 0 0 0 0 0 0 0 0 0 0 0 0 0 0 0 0 0 0 0 0 0 0
0 0 0 0 0 0 0 0 0 0 0 0 0 0 0 0 0 0 0 0 0 0 0 0 0 0 0 0 0 0 0 0 0 0 0 0 0 0 0 0 0 0 0
0 0 0 0 0 0 0 0 0 0 0 0 0 0 0 0 0 0 0 0 0 0 0 0 0 0 0 0 0 0 0 0 0 0 0 0 0 0 0 0 0 0 0
0 0 0 0 0 0 0 0 0 0 0 0 0 0 0 0 0 0 0 0 0 0 0 0 0 0 0 0 0 0 0 0 0 0 0 0 0 0 0 0 0 0 0
0 0 0 0 0 0 0 0 0 0 0 0 0 0 0 0 0 0 0 0 0 0 0 0 0 0 0 0 0 0 0 0 0 0 0 0 0 0 0 0 0 0 0
0 0 0 0 0 0 0 0 0 0 0 0 0 0 0 0 0 0 0 0 0 0 0 0 0 0 0 0 0 0 0 0 0 0 0 0 0 0 0 0 0 0 0
0 0 0 0 0 0 0 0 0 0 0 0 0 0 0 0 0 0 0 0 0 0 0 0 0 0 0 0 0 0 0 0 0 0 0 0 0 0 0 0 0 0 0
0 0 0 0 0 0 0 0 0 0 0 0 0 0 0 0 0 0 0 0 0 0 0 0 0 0 0 0 0 0 0 0 0 0 0 0 0 0 0 0 0 0 0
0 0 0 0 0 0 0 0 0 0 0 0 0 0 0 0 0 0 0 0 0 0 0 0 0 0 0 0 0 0 0 0 0 0 0 0 0 0 0 0 0 0 0
0 0 0 0 0 0 0 0 0 0 0 0 0 0 0 0 0 0 0 0 0 0 0 0 0 0 0 0 0 0 0 0 0 0 0 0 0 0 0 0 0 0 0
0 0 0 0 0 0 0 0 0 0 0 0 0 0 0 0 0 0 0 0 0 0 0 0 0 0 0 0 0 0 0 0 0 0 0 0 0 0 0 0 0 0 0
0 0 0 0 0 0 0 0 0 0 0 0 0 0 0 0 0 0 0 0 0 0 0 0 0 0 0 0 0 0 0 0 0 0 0 0 0 0 0 0 0 0 0
0 0 0 0 0 0 0 0 0 0 0 0 0 0 0 0 0 0 0 0 0 0 0 0 0 0 0 0 0 0 0 0 0 0 0 0 0 0 0 0 0 0 0
0 0 0 0 0 0 0 0 0 0 0 0 0 0 0 0 0 0 0 0 0 0 0 0 0 0 0 0 0 0 0 0 0 0 0 0 0 0 0 0 0 0 0
0 0 0 0 0 0 0 0 0 0 0 0 0 0 0 0 0 0 0 0 0 0 0 0 0 0 0 0 0 0 0 0 0 0 0 0 0 0 0 0 0 0 0
0 0 0 0 0 0 0 0 0 0 0 0 0 0 0 0 0 0 0 0 0 0 0 0 0 0 0 0 0 0 0 0 0 0 0 0 0 0 0 0 0 0 0
0 0 0 0 0 0 0 0 0 0 0 0 0 0 0 0 0 0 0 0 0 0 0 0 0 0 0 0 0 0 0 0 0 0 0 0 0 0 0 0 0 0 0
0 0 0 0 0 -0 -0 0 0 0 0 0 0 0 0 0 0 0 0 0 0 -0 0 0 0 0 0 0 0 0 0 0 0 0 0 0 0 0 0 0 0 0 0
0 0 0 -0 -0 -0 -0 0 0 0 0 0 0 0 0 0 0 0 0 0 0 0 0 0 0 0 0 0 0 0 0 0 0 0 0 0 0 0 0 0 0 0 0
0 0 -0 -0 0 -0 -0 0 0 0 0 0 0 0 0 0 0 0 0 0 0 0 0 0 0 0 0 0 0 0 0 0 0 0 0 0 0 0 0 0 0 0 0
0 0 0 0 0 0 -0 0 0 0 0 0 0 0 0 0 0 0 0 0 0 0 0 0 0 0 0 0 0 0 0 0 0 0 0 0 0 0 0 0 0 0 0
0 0 0 0 0 0 0 0 0 0 0 0 0 0 0 0 0 0 0 0 0 0 0 0 0 0 0 0 0 0 0 0 0 0 0 0 0 0 0 0 0 0 0
Wind_Speed
2 2 2 1 1 2 2 2 2 3 3 3 3 2 2 2 2 2 3 4 5 6 6 5 6 6 5 5 5 4 4 2 2 1 1 2 2 3 4 4 3 4 4
3 4 3 3 2 2 2 2 2 2 3 3 2 2 2 1 2 1 2 2 3 4 5 5 5 6 5 5 5 4 3 2 3 2 1 2 2 3 4 4 4 5 3
2 3 3 3 3 3 2 2 2 2 2 3 3 3 2 1 1 1 1 2 2 3 3 5 5 5 5 5 6 6 6 4 4 3 3 2 4 2 2 4 4 4 4
3 3 4 5 4 3 2 3 2 2 3 3 3 4 2 1 1 1 1 1 1 2 3 4 5 5 4 5 6 6 5 5 4 3 3 3 2 2 3 2 3 3 4
4 4 5 4 4 4 4 3 3 3 3 3 2 3 2 2 1 1 1 1 1 2 2 3 4 4 4 5 5 5 5 5 5 4 3 3 2 3 3 4 3 3 3
5 5 5 5 5 5 5 4 4 4 3 2 2 2 3 3 2 1 1 1 2 2 3 3 4 4 4 5 5 6 6 6 6 5 4 4 3 4 3 4 4 4 3
4 5 5 6 6 5 5 4 5 4 3 3 3 2 1 2 2 1 1 1 1 1 1 2 3 4 4 4 4 5 6 6 6 7 6 5 5 3 3 4 4 4 3
4 4 5 5 5 5 5 5 5 4 4 4 3 2 2 1 1 1 1 1 1 1 2 2 3 4 5 5 5 5 5 5 6 7 6 5 5 4 4 4 3 4 3
4 4 5 5 5 6 5 4 4 4 4 4 3 4 3 2 1 1 1 1 1 1 1 2 2 2 3 4 4 4 6 5 6 6 6 5 5 4 4 4 4 5 6
3 4 4 5 5 5 5 4 4 4 3 3 2 2 2 2 1 1 1 1 2 2 2 2 3 3 3 3 3 4 5 5 5 4 5 5 4 4 4 4 5 5 5
2 3 3 4 4 5 5 5 4 4 3 2 2 2 2 2 2 2 2 1 2 2 2 3 3 3 3 3 3 3 4 5 5 4 5 6 5 4 4 4 4 4 4
2 2 3 3 4 4 5 5 4 4 4 3 3 3 3 3 3 3 3 2 2 2 3 3 2 3 3 3 4 4 4 5 5 5 5 6 4 5 4 4 5 5 4
1 2 2 3 3 3 4 4 4 5 4 4 4 4 4 4 4 4 3 3 2 2 2 2 2 3 3 3 4 4 4 5 5 5 5 5 4 5 4 4 4 3 2
1 1 1 2 3 3 3 3 4 4 4 4 4 4 4 3 3 4 4 4 3 2 2 2 2 2 3 3 3 3 4 4 4 5 5 5 5 5 5 4 4 3 2
0 0 1 1 2 3 3 4 4 4 4 4 4 4 4 4 4 4 4 4 4 4 3 2 2 2 2 2 3 3 3 3 4 4 4 4 5 5 4 3 3 3 2
2 1 0 1 1 2 2 3 3 3 3 3 3 3 4 4 5 4 4 4 4 4 4 3 3 3 3 4 5 4 2 3 3 4 4 3 4 4 4 4 4 3 4
3 2 2 1 1 1 1 1 2 3 3 3 3 4 4 5 5 5 5 5 4 4 4 4 3 4 4 6 6 6 3 3 3 4 4 3 3 3 3 3 2 2 3
3 3 2 2 1 1 1 2 2 3 3 4 4 4 5 5 5 5 5 5 4 4 4 4 4 4 5 8 8 6 3 3 4 4 4 4 3 3 2 2 1 1 1
3 3 2 2 1 0 1 1 2 3 4 4 5 5 4 4 5 5 4 4 4 4 4 4 4 4 6 8 8 7 2 3 4 3 3 3 3 3 2 2 2 1 1
2 2 1 1 1 0 1 2 2 3 4 4 4 4 4 4 4 4 4 3 3 4 4 4 4 4 5 8 9 8 2 3 3 3 2 3 3 3 2 2 3 2 1
2 2 2 2 1 0 1 2 1 2 3 3 3 3 3 3 3 4 3 4 4 4 4 4 4 4 5 7 8 8 3 2 2 2 2 2 3 2 1 2 2 3 3
2 3 3 1 1 1 2 1 1 2 2 2 3 3 3 3 3 4 4 4 4 4 4 4 5 4 5 6 7 8 6 4 2 2 2 2 2 2 1 0 2 5 5
2 2 3 2 1 1 2 1 1 1 2 2 3 3 3 3 3 3 4 4 4 3 3 4 4 5 4 5 8 8 7 6 2 1 2 1 1 2 2 3 5 4 3
2 2 3 2 1 1 1 1 0 1 1 1 2 2 3 3 3 3 2 3 3 3 4 4 4 5 4 4 4 4 4 4 3 2 2 3 4 4 3 3 3 2 2
2 3 3 3 2 1 1 1 0 0 0 1 2 2 2 3 3 3 2 2 2 3 4 3 3 4 5 6 9 6 3 2 1 1 2 2 2 2 2 2 2 2 2
3 3 3 3 3 2 2 1 1 1 0 1 1 1 2 2 2 3 4 4 4 6 7 6 5 4 6 9 8 7 6 4 1 2 1 1 1 1 1 1 1 1 2
Wind_Direction
306 338 333 331 64 91 114 144 154 152 140 142 145 153 173 181 171 180 180 184 184 184 185 185 184 185 190 194 192 190 197 201 160 145 285 280 244 238 238 232 229 228 226
12 13 6 29 70 92 105 118 152 151 148 148 143 141 145 160 170 185 174 175 186 189 190 190 188 188 189 193 195 185 187 193 177 168 215 278 283 246 232 228 225 228 219
33 27 30 55 65 55 69 101 127 133 130 136 127 120 113 104 132 176 179 174 179 190 196 200 193 190 189 198 202 196 192 200 202 192 184 205 241 280 244 227 229 225 225
43 52 51 51 52 44 56 88 86 92 102 114 125 140 149 158 195 202 202 179 178 193 207 209 197 194 195 200 205 203 206 199 206 216 221 225 211 236 271 260 232 222 229
44 44 41 46 43 36 36 55 64 66 82 98 127 143 150 157 175 169 184 214 225 217 219 223 209 204 204 208 208 207 209 207 210 210 215 233 245 237 239 265 264 248 236
44 43 34 42 48 34 32 38 56 51 65 84 95 128 156 161 164 180 198 216 223 213 215 220 216 212 211 211 215 214 214 216 219 223 220 215 214 224 228 251 263 261 257
40 39 36 38 41 35 29 36 50 55 64 82 81 86 141 175 178 189 206 230 247 254 253 237 223 219 219 219 216 219 222 221 223 227 231 230 232 227 231 240 256 264 266
35 37 34 32 34 32 29 34 38 48 55 61 63 60 64 81 86 51 307 282 277 262 254 248 235 227 222 222 219 226 228 225 228 235 238 241 240 230 228 226 230 255 258
36 37 32 27 28 26 21 23 31 33 35 37 43 43 38 32 25 25 4 315 301 283 269 264 266 254 236 232 228 231 233 232 233 237 239 246 250 243 240 232 217 222 245
30 31 32 28 27 24 20 19 25 27 21 27 32 26 15 10 350 14 22 328 311 316 290 274 266 265 249 235 232 240 238 235 237 239 245 250 255 250 245 237 230 228 234
27 29 26 22 22 21 20 20 21 24 24 27 26 23 5 359 358 357 339 323 309 297 281 266 262 263 255 239 232 238 246 242 241 243 241 247 248 247 248 243 238 233 230
37 29 24 23 27 24 17 14 13 21 20 24 28 29 22 19 14 356 337 317 296 281 267 264 264 276 273 257 242 243 246 247 245 243 246 254 253 248 244 239 245 242 232
41 34 25 21 19 17 14 11 11 13 11 17 24 23 16 11 3 349 339 326 302 287 271 266 267 269 271 266 258 256 253 252 250 246 245 251 252 256 256 250 244 246 247
126 64 27 11 7 4 8 12 7 6 9 15 19 17 6 358 352 343 341 335 330 325 312 301 288 282 281 272 269 265 264 266 267 258 250 249 245 246 245 245 241 236 229
167 90 29 4 2 0 4 9 5 2 7 11 9 359 352 355 356 352 353 350 352 351 353 344 330 318 302 290 288 275 269 271 279 274 260 255 259 260 256 252 240 225 222
223 238 292 350 342 340 347 354 354 350 5 12 2 357 2 2 358 358 2 2 358 356 2 357 343 333 322 326 325 319 290 280 278 280 277 270 250 254 269 271 258 239 229
212 216 235 245 260 287 304 330 336 350 10 13 7 3 3 3 356 358 6 2 356 357 356 351 347 337 328 335 332 331 316 292 277 272 271 274 271 267 244 256 261 257 255
204 208 216 238 268 312 340 353 8 12 13 11 9 5 3 0 354 3 4 355 352 350 343 342 340 339 336 344 342 335 314 291 279 270 261 256 260 255 249 227 228 260 276
202 202 204 203 195 350 352 30 27 17 13 7 2 356 354 354 354 357 352 348 349 346 340 335 339 337 330 337 339 341 303 289 286 277 266 254 252 260 255 197 200 219 344
179 171 157 127 112 15 62 64 32 19 360 347 344 345 349 351 349 345 343 342 343 337 336 341 339 329 322 334 342 344 317 307 303 301 290 276 267 266 236 199 187 192 201
174 153 139 144 175 123 93 75 36 348 328 336 343 349 350 350 348 348 345 343 347 347 346 343 334 330 329 332 338 344 336 307 303 311 311 303 306 296 253 224 195 182 152
164 149 142 154 159 113 107 87 329 316 342 350 350 350 348 351 356 356 349 349 352 352 347 342 335 332 330 334 336 344 344 334 296 283 283 301 338 10 31 67 120 122 122
166 152 153 152 142 131 137 165 289 335 354 358 347 342 348 353 352 353 351 350 352 350 343 340 333 328 329 330 339 342 344 344 338 315 308 326 62 70 67 83 103 109 114
173 158 151 157 191 199 175 194 292 344 354 347 338 339 348 350 347 344 344 348 344 340 336 334 328 324 327 330 334 336 345 355 1 13 33 54 65 70 80 88 85 84 111
181 170 174 187 208 201 206 218 215 150 327 327 334 336 337 339 333 328 319 324 313 320 322 314 313 320 324 328 331 333 332 337 338 60 55 53 59 60 55 62 78 86 97
183 180 186 196 209 201 212 227 211 181 172 313 326 326 329 329 325 320 322 322 322 328 332 337 335 315 318 326 333 332 333 344 36 84 77 62 68 85 95 91 73 85 104